Weather History for Ozona, TX

Change the Weather History Date:

Tuesday, July 30, 2013

  Actual Average Record
Temperature  
Mean Temperature 83 °F -  
Max Temperature 95 °F 95 °F 100 °F (2012)
Min Temperature 71 °F 68 °F 68 °F (2012)
Cooling Degree Days 18    
Growing Degree Days 33 (Base 50)    
Moisture  
Dew Point 66 °F    
Average Humidity 62    
Maximum Humidity 88    
Minimum Humidity 32    
Precipitation  
Precipitation 0.00 in - - ()
Sea Level Pressure  
Sea Level Pressure 30.09 in    
Wind  
Wind Speed - (North)    
Max Wind Speed -    
Max Gust Speed -    
Visibility 10 miles    
Events Rain    
Averages and records for this station are not official NWS values.
T = Trace of Precipitation, MM = Missing Value Source: NWS Daily Summary

Daily Weather History Graph

Daily Weather History Graph

Search for Another Location

Airport:

Trip Planner

Search our weather history database for the weather conditions in past years. The results will help you decide how hot, cold, wet, or windy it might be!

Date:

Astronomy

Jul. 30, 2013 Rise Set
Actual Time 7:01 AM CDT 8:40 PM CDT
Civil Twilight 6:35 AM CDT 9:06 PM CDT
Nautical Twilight 6:03 AM CDT 9:38 PM CDT
Astronomical Twilight 5:30 AM CDT 10:11 PM CDT
Moon 1:17 AM CDT (7/30) 3:03 PM CDT (7/30)
Length of Visible Light 14h 31m
Length of Day
13h 39m
Last Quarter, 41% of the Moon is Illuminated
Jul 30
Last Quarter
Aug 6
New
Aug 14
First Quarter
Aug 20
Full
Aug 28
Last Quarter

Hourly Weather History & Observations

Time (CDT) Temp. Heat Index Dew Point Humidity Pressure Visibility Wind Dir Wind Speed Gust Speed Precip Events Conditions
12:15 AM 73.4 °F - 66.2 °F 78% 30.06 in 10.0 mi North - - N/A   Clear
12:35 AM 73.4 °F - 66.2 °F 78% 30.05 in 10.0 mi North - - N/A   Clear
12:55 AM 71.6 °F - 68.0 °F 88% 30.04 in 10.0 mi North - - N/A   Clear
1:15 AM 73.4 °F - 66.2 °F 78% 30.04 in 10.0 mi North - - N/A   Clear
1:35 AM 73.4 °F - 64.4 °F 73% 30.06 in 10.0 mi North - - N/A   Clear
1:55 AM 75.2 °F - 64.4 °F 69% 30.07 in 10.0 mi North - - N/A   Clear
2:15 AM 75.2 °F - 64.4 °F 69% 30.07 in 10.0 mi North - - N/A   Clear
2:35 AM 77.0 °F - 64.4 °F 65% 30.08 in 10.0 mi North - - N/A   Clear
2:55 AM 77.0 °F - 62.6 °F 61% 30.08 in 10.0 mi North - - N/A   Clear
3:15 AM 77.0 °F - 64.4 °F 65% 30.09 in 10.0 mi North - - N/A   Clear
3:35 AM 78.8 °F - 64.4 °F 61% 30.09 in 10.0 mi North - - N/A   Clear
3:55 AM 77.0 °F - 66.2 °F 69% 30.08 in 10.0 mi North - - N/A   Clear
4:15 AM 77.0 °F - 66.2 °F 69% 30.09 in 10.0 mi North - - N/A   Clear
4:35 AM 77.0 °F - 66.2 °F 69% 30.08 in 10.0 mi North - - N/A   Clear
4:55 AM 77.0 °F - 66.2 °F 69% 30.08 in 10.0 mi North - - N/A   Clear
5:15 AM 77.0 °F - 66.2 °F 69% 30.08 in 10.0 mi North - - N/A   Clear
5:35 AM 77.0 °F - 66.2 °F 69% 30.09 in 10.0 mi North - - N/A   Clear
5:55 AM 77.0 °F - 66.2 °F 69% 30.10 in 10.0 mi North - - N/A   Clear
6:15 AM 77.0 °F - 66.2 °F 69% 30.10 in 10.0 mi North - - N/A   Clear
6:35 AM 75.2 °F - 68.0 °F 78% 30.11 in 10.0 mi North - - N/A   Clear
6:55 AM 75.2 °F - 68.0 °F 78% 30.11 in 10.0 mi North - - N/A   Clear
7:15 AM 73.4 °F - 68.0 °F 83% 30.12 in 10.0 mi North - - N/A   Clear
7:35 AM 73.4 °F - 68.0 °F 83% 30.12 in 10.0 mi North - - N/A   Clear
7:55 AM 73.4 °F - 68.0 °F 83% 30.13 in 10.0 mi North - - N/A   Clear
8:15 AM 73.4 °F - 68.0 °F 83% 30.13 in 10.0 mi North - - N/A Rain Light Rain
8:35 AM 73.4 °F - 68.0 °F 83% 30.14 in 10.0 mi North - - N/A   Scattered Clouds
8:55 AM 73.4 °F - 68.0 °F 83% 30.14 in 10.0 mi North - - N/A   Scattered Clouds
9:15 AM 75.2 °F - 68.0 °F 78% 30.14 in 10.0 mi North - - N/A   Scattered Clouds
9:35 AM 75.2 °F - 68.0 °F 78% 30.14 in 10.0 mi North - - N/A   Scattered Clouds
9:55 AM 77.0 °F - 69.8 °F 78% 30.15 in 10.0 mi North - - N/A   Scattered Clouds
10:15 AM 77.0 °F - 69.8 °F 78% 30.15 in 10.0 mi North - - N/A   Scattered Clouds
10:35 AM 78.8 °F - 69.8 °F 74% 30.14 in 10.0 mi North - - N/A   Scattered Clouds
10:55 AM 80.6 °F 83.9 °F 69.8 °F 70% 30.15 in 10.0 mi North - - N/A   Scattered Clouds
11:15 AM 80.6 °F 83.9 °F 69.8 °F 70% 30.15 in 10.0 mi North - - N/A   Clear
11:55 AM 82.4 °F 86.3 °F 69.8 °F 66% 30.15 in 10.0 mi North - - N/A   Clear
12:15 PM 82.4 °F 86.3 °F 69.8 °F 66% 30.15 in 10.0 mi North - - N/A   Clear
12:35 PM 86.0 °F 90.4 °F 69.8 °F 58% 30.14 in 10.0 mi North - - N/A   Clear
1:35 PM 87.8 °F 92.6 °F 69.8 °F 55% 30.11 in - North - - N/A   Unknown
1:55 PM 89.6 °F 93.4 °F 68.0 °F 49% 30.11 in - North - - N/A   Unknown
2:15 PM - - - N/A% - - North - - N/A   Unknown
2:35 PM 91.4 °F 95.4 °F 68.0 °F 46% 30.10 in 10.0 mi North - - N/A   Unknown
2:55 PM 91.4 °F 94.0 °F 66.2 °F 43% 30.09 in 10.0 mi North - - N/A   Clear
3:15 PM 91.4 °F 95.4 °F 68.0 °F 46% 30.08 in 10.0 mi North - - N/A   Clear
3:35 PM 91.4 °F 93.2 °F 64.4 °F 41% 30.08 in 10.0 mi North - - N/A   Clear
3:55 PM 91.4 °F 94.0 °F 66.2 °F 43% 30.07 in 10.0 mi North - - N/A   Clear
4:55 PM 95.0 °F 96.0 °F 62.6 °F 34% 30.05 in 10.0 mi North - - N/A   Clear
5:35 PM 95.0 °F 96.0 °F 62.6 °F 34% 30.04 in 10.0 mi North - - N/A   Clear
5:55 PM 95.0 °F 96.0 °F 62.6 °F 34% 30.03 in 10.0 mi North - - N/A   Clear
6:15 PM 95.0 °F 95.2 °F 60.8 °F 32% 30.03 in 10.0 mi North - - N/A   Clear
7:35 PM 93.2 °F 93.3 °F 60.8 °F 34% 30.04 in 10.0 mi North - - N/A   Clear
7:55 PM 91.4 °F 91.4 °F 60.8 °F 36% 30.06 in 10.0 mi North - - N/A   Clear
8:15 PM 89.6 °F 89.5 °F 60.8 °F 38% 30.07 in 10.0 mi North - - N/A   Clear
8:35 PM 87.8 °F 88.5 °F 62.6 °F 43% 30.07 in 10.0 mi North - - N/A   Clear
8:55 PM 87.8 °F 87.6 °F 60.8 °F 40% 30.07 in 10.0 mi North - - N/A   Clear
9:15 PM 86.0 °F 86.1 °F 60.8 °F 43% 30.08 in 10.0 mi North - - N/A   Clear
9:55 PM 82.4 °F 83.4 °F 62.6 °F 51% 30.09 in 10.0 mi North - - N/A   Clear
10:15 PM 82.4 °F 83.4 °F 62.6 °F 51% 30.09 in 10.0 mi North - - N/A   Clear
10:35 PM 82.4 °F 83.4 °F 62.6 °F 51% 30.10 in 10.0 mi North - - N/A   Clear
10:55 PM 82.4 °F 82.9 °F 60.8 °F 48% 30.10 in 10.0 mi North - - N/A   Clear
11:15 PM 80.6 °F 81.5 °F 60.8 °F 51% 30.10 in 10.0 mi North - - N/A   Clear
11:35 PM 80.6 °F 81.8 °F 62.6 °F 54% 30.10 in 10.0 mi North - - N/A   Clear
11:55 PM 78.8 °F - 64.4 °F 61% 30.11 in 10.0 mi North - - N/A   Clear